ANA254 RJFF-RJTT

Flight info

Callsign ANA254
Flight time 1h 18m
Altitude 35000
Route IPRIR Y231 OMKAT Y235 FLUTE Y23 ARTIC Y71 XAC
Aircraft B772/H-SDE2E3FGHIJ5LORVWXY/LB1D1

Departure

Time 2026-05-04 04:26
Airport Fukuoka Airport (RJFF)

Arrival

Time 2026-05-04 05:45
Airport Tokyo Haneda International Airport (RJTT)
Time Latitude Longitude Altitude Speed Heading
2026-05-04 03:59 33.59589 130.44829 49 ft 0 kts 60°
2026-05-04 04:12 33.59588 130.44827 49 ft 1 kts 60°
2026-05-04 04:13 33.59581 130.44812 49 ft 2 kts 60°
2026-05-04 04:13 33.59574 130.44797 49 ft 2 kts 60°
2026-05-04 04:13 33.59566 130.44781 49 ft 2 kts 60°
2026-05-04 04:13 33.59559 130.44765 49 ft 2 kts 72°
2026-05-04 04:14 33.59557 130.44748 49 ft 2 kts 100°
2026-05-04 04:14 33.59562 130.44731 49 ft 2 kts 123°
2026-05-04 04:14 33.59572 130.44717 49 ft 2 kts 146°
2026-05-04 04:14 33.59585 130.44710 49 ft 2 kts 153°
2026-05-04 04:15 33.59598 130.44701 49 ft 2 kts 149°
2026-05-04 04:15 33.59611 130.44691 49 ft 2 kts 149°
2026-05-04 04:15 33.59621 130.44685 49 ft 0 kts 149°
2026-05-04 04:17 33.59614 130.44690 49 ft 2 kts 149°
2026-05-04 04:17 33.59598 130.44701 49 ft 4 kts 149°
2026-05-04 04:18 33.59567 130.44724 49 ft 6 kts 149°
2026-05-04 04:18 33.59523 130.44753 49 ft 6 kts 155°
2026-05-04 04:18 33.59497 130.44745 49 ft 4 kts 237°
2026-05-04 04:18 33.59472 130.44713 49 ft 5 kts 195°
2026-05-04 04:19 33.59427 130.44730 49 ft 8 kts 151°
2026-05-04 04:19 33.59367 130.44771 49 ft 11 kts 150°
2026-05-04 04:19 33.59291 130.44823 49 ft 13 kts 150°
2026-05-04 04:19 33.59202 130.44882 49 ft 15 kts 150°
2026-05-04 04:20 33.59108 130.44948 49 ft 15 kts 150°
2026-05-04 04:20 33.59014 130.45012 49 ft 15 kts 149°
2026-05-04 04:20 33.58918 130.45077 49 ft 15 kts 150°
2026-05-04 04:20 33.58824 130.45142 49 ft 15 kts 150°
2026-05-04 04:21 33.58730 130.45206 49 ft 15 kts 150°
2026-05-04 04:21 33.58636 130.45270 49 ft 15 kts 150°
2026-05-04 04:21 33.58542 130.45334 49 ft 15 kts 150°
2026-05-04 04:21 33.58450 130.45398 49 ft 15 kts 150°
2026-05-04 04:22 33.58355 130.45462 49 ft 15 kts 150°
2026-05-04 04:22 33.58262 130.45526 49 ft 15 kts 150°
2026-05-04 04:22 33.58168 130.45590 49 ft 15 kts 150°
2026-05-04 04:22 33.58074 130.45654 49 ft 15 kts 150°
2026-05-04 04:23 33.57981 130.45718 49 ft 15 kts 150°
2026-05-04 04:23 33.57888 130.45783 49 ft 15 kts 150°
2026-05-04 04:23 33.57795 130.45845 49 ft 15 kts 150°
2026-05-04 04:23 33.57702 130.45909 49 ft 15 kts 150°
2026-05-04 04:24 33.57606 130.45960 49 ft 14 kts 184°
2026-05-04 04:24 33.57536 130.45880 49 ft 14 kts 239°
2026-05-04 04:24 33.57520 130.45810 49 ft 5 kts 303°
2026-05-04 04:24 33.57539 130.45793 49 ft 0 kts 329°
2026-05-04 04:25 33.57543 130.45790 49 ft 0 kts 329°
2026-05-04 04:25 33.57552 130.45784 49 ft 4 kts 329°
2026-05-04 04:25 33.57624 130.45734 49 ft 28 kts 329°
2026-05-04 04:26 33.58002 130.45476 49 ft 94 kts 330°
2026-05-04 04:26 33.58746 130.44966 50 ft 150 kts 330°
2026-05-04 04:26 33.59759 130.44289 331 ft 172 kts 328°
2026-05-04 04:26 33.60770 130.43640 1125 ft 166 kts 327°
2026-05-04 04:27 33.61739 130.42978 1485 ft 165 kts 326°
2026-05-04 04:27 33.62794 130.42239 1501 ft 182 kts 326°
2026-05-04 04:27 33.64061 130.41634 1518 ft 204 kts 344°
2026-05-04 04:27 33.65560 130.41663 1556 ft 232 kts
2026-05-04 04:28 33.67074 130.42592 1818 ft 259 kts 37°
2026-05-04 04:28 33.68146 130.44412 2310 ft 273 kts 58°
2026-05-04 04:28 33.68823 130.46527 2987 ft 277 kts 78°
2026-05-04 04:28 33.68700 130.48845 3546 ft 285 kts 105°
2026-05-04 04:29 33.67716 130.50903 3945 ft 294 kts 135°
2026-05-04 04:29 33.66057 130.52396 4502 ft 294 kts 150°
2026-05-04 04:29 33.64294 130.53601 5081 ft 295 kts 152°
2026-05-04 04:29 33.62690 130.55167 5583 ft 301 kts 126°
2026-05-04 04:30 33.61803 130.57419 5967 ft 303 kts 98°
2026-05-04 04:30 33.61440 130.59912 6561 ft 302 kts 93°
2026-05-04 04:30 33.61135 130.62386 7229 ft 300 kts 94°
2026-05-04 04:30 33.60829 130.64896 7714 ft 306 kts 94°
2026-05-04 04:31 33.60524 130.67401 8245 ft 308 kts 95°
2026-05-04 04:31 33.60212 130.69960 8782 ft 311 kts 95°
2026-05-04 04:31 33.59898 130.72527 9244 ft 316 kts 95°
2026-05-04 04:31 33.59576 130.75145 9739 ft 319 kts 95°
2026-05-04 04:32 33.59252 130.77785 10247 ft 323 kts 96°
2026-05-04 04:32 33.58915 130.80542 10411 ft 341 kts 95°
2026-05-04 04:32 33.58566 130.83392 10539 ft 360 kts 96°
2026-05-04 04:32 33.58187 130.86464 10643 ft 380 kts 96°
2026-05-04 04:33 33.57794 130.89650 10786 ft 399 kts 96°
2026-05-04 04:33 33.57375 130.93031 11052 ft 414 kts 96°
2026-05-04 04:33 33.56950 130.96437 11776 ft 416 kts 96°
2026-05-04 04:33 33.56522 130.99861 12417 ft 419 kts 97°
2026-05-04 04:34 33.56088 131.03326 12892 ft 429 kts 97°
2026-05-04 04:34 33.55639 131.06902 13443 ft 436 kts 97°
2026-05-04 04:34 33.55185 131.10506 14031 ft 441 kts 97°
2026-05-04 04:34 33.54730 131.14114 14516 ft 450 kts 97°
2026-05-04 04:35 33.54258 131.17841 15115 ft 456 kts 98°
2026-05-04 04:35 33.53777 131.21637 15722 ft 461 kts 98°
2026-05-04 04:35 33.53295 131.25424 16259 ft 467 kts 99°
2026-05-04 04:35 33.52797 131.29326 16784 ft 474 kts 99°
2026-05-04 04:36 33.52294 131.33254 17251 ft 481 kts 99°
2026-05-04 04:36 33.51790 131.37178 17771 ft 487 kts 99°
2026-05-04 04:36 33.51269 131.41232 18316 ft 491 kts 101°
2026-05-04 04:36 33.50747 131.45279 18872 ft 495 kts 101°
2026-05-04 04:37 33.49149 131.57596 20338 ft 508 kts 103°
2026-05-04 04:37 33.48599 131.61809 20835 ft 511 kts 103°
2026-05-04 04:38 33.48050 131.66016 21346 ft 514 kts 105°
2026-05-04 04:38 33.47529 131.70248 21740 ft 521 kts 102°
2026-05-04 04:38 33.47404 131.74593 22100 ft 533 kts 91°
2026-05-04 04:38 33.47798 131.79065 22461 ft 542 kts 84°
2026-05-04 04:39 33.48445 131.83508 22924 ft 545 kts 83°
2026-05-04 04:39 33.49116 131.87976 23379 ft 547 kts 84°
2026-05-04 04:39 33.49784 131.92476 23777 ft 551 kts 84°
2026-05-04 04:39 33.50449 131.96995 24189 ft 554 kts 83°
2026-05-04 04:40 33.51109 132.01521 24590 ft 558 kts 84°
2026-05-04 04:40 33.51767 132.06065 25015 ft 561 kts 84°
2026-05-04 04:40 33.52428 132.10658 25444 ft 563 kts 85°
2026-05-04 04:40 33.53093 132.15297 25897 ft 566 kts 85°
2026-05-04 04:41 33.53754 132.19937 26306 ft 568 kts 85°
2026-05-04 04:41 33.54417 132.24603 26711 ft 571 kts 85°
2026-05-04 04:41 33.55110 132.29320 27135 ft 575 kts 82°
2026-05-04 04:41 33.56186 132.33943 27559 ft 581 kts 74°
2026-05-04 04:42 33.57510 132.38477 27954 ft 585 kts 73°
2026-05-04 04:42 33.58881 132.43063 28262 ft 589 kts 73°
2026-05-04 04:42 33.60271 132.47720 28582 ft 593 kts 72°
2026-05-04 04:42 33.61666 132.52402 28908 ft 598 kts 73°
2026-05-04 04:43 33.63054 132.57072 29373 ft 598 kts 72°
2026-05-04 04:43 33.64451 132.61783 29927 ft 597 kts 73°
2026-05-04 04:43 33.65835 132.66461 30447 ft 596 kts 73°
2026-05-04 04:43 33.67223 132.71166 30735 ft 600 kts 74°
2026-05-04 04:44 33.68595 132.75825 31058 ft 602 kts 73°
2026-05-04 04:44 33.70002 132.80608 31531 ft 601 kts 74°
2026-05-04 04:44 33.71378 132.85294 32057 ft 599 kts 74°
2026-05-04 04:44 33.72759 132.90008 32495 ft 598 kts 73°
2026-05-04 04:45 33.74137 132.94720 32888 ft 598 kts 74°
2026-05-04 04:45 33.75509 132.99419 33302 ft 598 kts 73°
2026-05-04 04:45 33.76879 133.04118 33727 ft 597 kts 74°
2026-05-04 04:47 33.85118 133.32548 34910 ft 598 kts 74°
2026-05-04 04:47 33.87865 133.42093 34913 ft 596 kts 73°
2026-05-04 04:48 33.90572 133.51524 34910 ft 595 kts 73°
2026-05-04 04:49 33.97324 133.75191 34879 ft 594 kts 74°
2026-05-04 04:49 33.99977 133.84546 34881 ft 596 kts 73°
2026-05-04 04:50 34.02665 133.94055 34884 ft 595 kts 75°
2026-05-04 04:50 34.04771 134.03645 34887 ft 591 kts 82°
2026-05-04 04:51 34.06539 134.13289 34882 ft 592 kts 82°
2026-05-04 04:51 34.08305 134.22971 34878 ft 591 kts 82°
2026-05-04 04:52 34.10053 134.32577 34874 ft 590 kts 82°
2026-05-04 04:52 34.11802 134.42235 34850 ft 589 kts 81°
2026-05-04 04:53 34.13553 134.51945 34851 ft 593 kts 82°
2026-05-04 04:53 34.15300 134.61679 34850 ft 592 kts 82°
2026-05-04 04:54 34.17027 134.71338 34822 ft 590 kts 82°
2026-05-04 04:54 34.18755 134.81050 34825 ft 591 kts 82°
2026-05-04 04:55 34.20470 134.90741 34830 ft 592 kts 82°
2026-05-04 04:55 34.22174 135.00423 34818 ft 590 kts 83°
2026-05-04 04:56 34.23832 135.10178 34819 ft 590 kts 84°
2026-05-04 04:56 34.25462 135.19842 34819 ft 589 kts 83°
2026-05-04 04:57 34.27088 135.29517 34821 ft 590 kts 83°
2026-05-04 04:57 34.28711 135.39224 34830 ft 591 kts 83°
2026-05-04 04:58 34.30332 135.48959 34838 ft 590 kts 83°
2026-05-04 04:58 34.31931 135.58609 34833 ft 586 kts 84°
2026-05-04 04:59 34.33531 135.68318 34803 ft 587 kts 84°
2026-05-04 04:59 34.35123 135.78030 34803 ft 588 kts 84°
2026-05-04 05:00 34.36706 135.87740 34809 ft 587 kts 84°
2026-05-04 05:01 34.39050 136.02196 34814 ft 584 kts 84°
2026-05-04 05:01 34.40606 136.11864 34809 ft 587 kts 84°
2026-05-04 05:02 34.42156 136.21545 34809 ft 584 kts 83°
2026-05-04 05:02 34.43681 136.31122 34800 ft 582 kts 83°
2026-05-04 05:03 34.45215 136.40810 34791 ft 586 kts 84°
2026-05-04 05:04 34.48243 136.60082 34781 ft 585 kts 84°
2026-05-04 05:04 34.49754 136.69768 34755 ft 582 kts 84°
2026-05-04 05:06 34.53913 137.03355 34757 ft 572 kts 96°
2026-05-04 05:06 34.53956 137.08232 34745 ft 573 kts 97°
2026-05-04 05:07 34.54030 137.17804 34741 ft 566 kts 96°
2026-05-04 05:07 34.54092 137.27261 34745 ft 567 kts 97°
2026-05-04 05:09 34.54286 137.70258 34709 ft 563 kts 97°
2026-05-04 05:10 34.54307 137.79715 34701 ft 564 kts 97°
2026-05-04 05:10 34.54322 137.89153 34702 ft 562 kts 98°
2026-05-04 05:11 34.54328 137.98613 34707 ft 566 kts 97°
2026-05-04 05:11 34.54326 138.08118 34483 ft 561 kts 97°
2026-05-04 05:12 34.54317 138.12813 33500 ft 565 kts 98°
2026-05-04 05:12 34.54303 138.17635 32481 ft 571 kts 97°
2026-05-04 05:12 34.54288 138.22409 31571 ft 574 kts 97°
2026-05-04 05:12 34.54272 138.27245 30637 ft 578 kts 97°
2026-05-04 05:13 34.54337 138.32100 29933 ft 581 kts 91°
2026-05-04 05:13 34.54876 138.36937 29429 ft 583 kts 82°
2026-05-04 05:13 34.55933 138.41679 28863 ft 583 kts 74°
2026-05-04 05:13 34.57475 138.46211 28254 ft 584 kts 67°
2026-05-04 05:14 34.59267 138.50636 27609 ft 583 kts 65°
2026-05-04 05:14 34.61057 138.54971 26992 ft 581 kts 64°
2026-05-04 05:14 34.62881 138.59384 26367 ft 579 kts 65°
2026-05-04 05:14 34.64665 138.63707 25751 ft 577 kts 64°
2026-05-04 05:15 34.66447 138.68031 25114 ft 575 kts 65°
2026-05-04 05:15 34.68235 138.72372 24550 ft 571 kts 66°
2026-05-04 05:15 34.69774 138.76761 24203 ft 560 kts 74°
2026-05-04 05:15 34.70826 138.81244 23421 ft 558 kts 82°
2026-05-04 05:16 34.71370 138.85890 22753 ft 550 kts 92°
2026-05-04 05:16 34.71468 138.90471 22431 ft 536 kts 97°
2026-05-04 05:16 34.71473 138.94897 22370 ft 521 kts 97°
2026-05-04 05:16 34.71468 138.99254 22320 ft 506 kts 97°
2026-05-04 05:17 34.71457 139.03494 22014 ft 500 kts 97°
2026-05-04 05:17 34.71440 139.07672 21497 ft 500 kts 97°
2026-05-04 05:17 34.71419 139.11868 20988 ft 498 kts 97°
2026-05-04 05:17 34.71397 139.16075 20556 ft 496 kts 97°
2026-05-04 05:18 34.71375 139.20238 20203 ft 490 kts 97°
2026-05-04 05:18 34.71350 139.24348 19783 ft 487 kts 97°
2026-05-04 05:18 34.71323 139.28416 19277 ft 487 kts 97°
2026-05-04 05:18 34.71294 139.32526 18817 ft 485 kts 97°
2026-05-04 05:19 34.71331 139.36568 18418 ft 484 kts 91°
2026-05-04 05:19 34.71840 139.40613 18095 ft 485 kts 80°
2026-05-04 05:19 34.72857 139.44499 17658 ft 486 kts 69°
2026-05-04 05:19 34.74348 139.48212 17130 ft 487 kts 62°
2026-05-04 05:20 34.75957 139.51747 16999 ft 475 kts 60°
2026-05-04 05:20 34.77558 139.55240 17006 ft 460 kts 61°
2026-05-04 05:20 34.79089 139.58585 17016 ft 445 kts 61°
2026-05-04 05:20 34.80564 139.61810 17027 ft 431 kts 61°
2026-05-04 05:21 34.82176 139.64851 17031 ft 417 kts 49°
2026-05-04 05:21 34.84107 139.67383 17025 ft 398 kts 36°
2026-05-04 05:21 34.86250 139.69338 16973 ft 379 kts 24°
2026-05-04 05:21 34.88564 139.70776 16677 ft 369 kts 13°
2026-05-04 05:22 34.90945 139.71948 16350 ft 366 kts 12°
2026-05-04 05:22 34.93306 139.73080 16127 ft 361 kts 11°
2026-05-04 05:22 34.95650 139.74158 15831 ft 358 kts 10°
2026-05-04 05:22 34.97945 139.75375 15584 ft 364 kts 24°
2026-05-04 05:23 34.99971 139.77271 15383 ft 367 kts 37°
2026-05-04 05:23 35.01844 139.79417 14916 ft 374 kts 40°
2026-05-04 05:23 35.03708 139.81622 14620 ft 372 kts 40°
2026-05-04 05:23 35.05442 139.83948 14348 ft 372 kts 53°
2026-05-04 05:24 35.06716 139.86700 13981 ft 373 kts 70°
2026-05-04 05:24 35.07412 139.89705 13641 ft 367 kts 88°
2026-05-04 05:24 35.07510 139.92757 13347 ft 354 kts 103°
2026-05-04 05:24 35.07062 139.95651 13039 ft 341 kts 119°
2026-05-04 05:25 35.06160 139.98219 12806 ft 320 kts 134°
2026-05-04 05:25 35.05002 140.00493 12820 ft 316 kts 137°
2026-05-04 05:25 35.03818 140.02745 12820 ft 314 kts 137°
2026-05-04 05:25 35.02700 140.05041 12811 ft 324 kts 124°
2026-05-04 05:26 35.02037 140.07660 12834 ft 326 kts 114°
2026-05-04 05:26 35.01529 140.10408 12846 ft 336 kts 113°
2026-05-04 05:26 35.01036 140.13197 12855 ft 336 kts 112°
2026-05-04 05:26 35.00539 140.15973 12877 ft 338 kts 112°
2026-05-04 05:27 35.00085 140.18802 12874 ft 343 kts 103°
2026-05-04 05:28 35.10683 140.29376 10982 ft 313 kts 334°
2026-05-04 05:29 35.12814 140.28793 10582 ft 314 kts 335°
2026-05-04 05:29 35.14929 140.28217 10351 ft 309 kts 335°
2026-05-04 05:29 35.17011 140.27649 10050 ft 307 kts 334°
2026-05-04 05:29 35.19089 140.27080 9691 ft 308 kts 335°
2026-05-04 05:31 35.33367 140.23160 8092 ft 295 kts 336°
2026-05-04 05:31 35.35377 140.22601 8087 ft 296 kts 336°
2026-05-04 05:32 35.37394 140.22080 8078 ft 300 kts 341°
2026-05-04 05:32 35.39465 140.21805 7945 ft 297 kts 345°
2026-05-04 05:32 35.41547 140.21600 7637 ft 297 kts 345°
2026-05-04 05:33 35.45497 140.21216 7424 ft 279 kts 344°
2026-05-04 05:33 35.47438 140.21011 7091 ft 280 kts 345°
2026-05-04 05:33 35.49398 140.20808 6789 ft 280 kts 346°
2026-05-04 05:33 35.51338 140.20610 6523 ft 277 kts 346°
2026-05-04 05:34 35.53245 140.20354 6242 ft 271 kts 339°
2026-05-04 05:34 35.55053 140.19797 5922 ft 268 kts 335°
2026-05-04 05:34 35.56833 140.19174 5814 ft 256 kts 332°
2026-05-04 05:34 35.58322 140.18218 5595 ft 232 kts 307°
2026-05-04 05:35 35.59288 140.16768 5529 ft 208 kts 294°
2026-05-04 05:35 35.60054 140.15323 5463 ft 197 kts 292°
2026-05-04 05:35 35.60538 140.13803 5143 ft 186 kts 271°
2026-05-04 05:35 35.60567 140.12288 5043 ft 167 kts 263°
2026-05-04 05:36 35.60553 140.10895 5030 ft 165 kts 263°
2026-05-04 05:36 35.60543 140.09476 4878 ft 166 kts 264°
2026-05-04 05:36 35.60536 140.08040 4689 ft 166 kts 264°
2026-05-04 05:36 35.60530 140.06627 4503 ft 166 kts 264°
2026-05-04 05:37 35.60523 140.05215 4309 ft 164 kts 264°
2026-05-04 05:37 35.60516 140.03810 4120 ft 164 kts 263°
2026-05-04 05:37 35.60509 140.02425 3927 ft 162 kts 263°
2026-05-04 05:38 35.60493 139.99672 3550 ft 164 kts 263°
2026-05-04 05:38 35.60486 139.98256 3355 ft 164 kts 263°
2026-05-04 05:38 35.60477 139.96864 3170 ft 163 kts 263°
2026-05-04 05:38 35.60471 139.95485 2955 ft 158 kts 262°
2026-05-04 05:39 35.60465 139.94215 2722 ft 146 kts 261°
2026-05-04 05:39 35.60448 139.91788 2244 ft 136 kts 261°
2026-05-04 05:39 35.60444 139.90674 2015 ft 123 kts 260°
2026-05-04 05:40 35.60428 139.88495 1557 ft 128 kts 261°
2026-05-04 05:40 35.60418 139.87396 1324 ft 130 kts 261°
2026-05-04 05:40 35.60420 139.86296 1164 ft 129 kts 261°
2026-05-04 05:41 35.60400 139.85194 1087 ft 130 kts 260°
2026-05-04 05:41 35.60384 139.84041 1034 ft 137 kts 258°
2026-05-04 05:41 35.60264 139.82913 966 ft 134 kts 250°
2026-05-04 05:41 35.59998 139.81841 892 ft 130 kts 243°
2026-05-04 05:42 35.59614 139.80843 840 ft 129 kts 238°
2026-05-04 05:42 35.59121 139.79894 749 ft 129 kts 224°
2026-05-04 05:42 35.58454 139.79205 483 ft 123 kts 217°
2026-05-04 05:42 35.57769 139.78595 309 ft 120 kts 214°
2026-05-04 05:43 35.57078 139.77986 150 ft 125 kts 213°
2026-05-04 05:43 35.56352 139.77367 39 ft 125 kts 212°
2026-05-04 05:43 35.55741 139.76848 34 ft 83 kts 213°
2026-05-04 05:45 35.55235 139.76886 34 ft 14 kts 60°
2026-05-04 05:45 35.55288 139.76999 34 ft 15 kts 59°
2026-05-04 05:47 35.55899 139.77452 34 ft 17 kts 59°
2026-05-04 05:47 35.55960 139.77579 34 ft 17 kts 60°
2026-05-04 05:47 35.56018 139.77708 34 ft 17 kts 60°
2026-05-04 05:48 35.56079 139.77832 34 ft 17 kts 59°
2026-05-04 05:48 35.56141 139.77960 34 ft 17 kts 60°
2026-05-04 05:48 35.56200 139.78088 34 ft 17 kts 59°
2026-05-04 05:48 35.56260 139.78214 34 ft 17 kts 60°
2026-05-04 05:49 35.56322 139.78343 34 ft 17 kts 60°
2026-05-04 05:49 35.56337 139.78439 34 ft 10 kts 122°
2026-05-04 05:49 35.56282 139.78491 34 ft 10 kts 150°
2026-05-04 05:49 35.56213 139.78540 34 ft 12 kts 150°
2026-05-04 05:51 35.55612 139.78966 34 ft 13 kts 150°
2026-05-04 05:51 35.55525 139.79027 34 ft 15 kts 150°
2026-05-04 05:52 35.55434 139.79007 34 ft 16 kts 237°
2026-05-04 05:52 35.55351 139.78932 34 ft 15 kts 167°
2026-05-04 05:52 35.55270 139.78984 34 ft 7 kts 160°
2026-05-04 05:52 35.55231 139.78952 34 ft 7 kts 237°
2026-05-04 05:53 35.55217 139.78923 34 ft 2 kts 240°